Overview Statistics Trail Chart Weather Telemetry Raw packets
 

This is the latest recevied weather packets stored in our database for station/object N0QV. If no packets are shown the sender has not sent any weather packets the latest 10 day(s).

<< 29 30 31 32 33 34 35 >>
Time Temp. Humidity Pressure Rain* Wind** Luminosity Snow
1788469977 31.11° C 67% 1008.5 hPa 0 mm - 464 W/m² -
1788469673 30.56° C 66% 1008.7 hPa 0 mm - 393 W/m² -
1788469368 30° C 67% 1008.7 hPa 0 mm - 308 W/m² -
1788469068 30.56° C 67% 1008.7 hPa 0 mm - 201 W/m² -
1788468767 30° C 65% 1008.2 hPa 0 mm - 227 W/m² -
1788468463 30° C 64% 1008.4 hPa 0 mm - 229 W/m² -
1788468159 30° C 65% 1008.5 hPa 0 mm - 172 W/m² -
1788467854 30° C 64% 1008.4 hPa 0 mm - 204 W/m² -
1788467550 30.56° C 63% 1008.5 hPa 0 mm - 184 W/m² -
1788467249 30.56° C 62% 1008.6 hPa 0 mm - 258 W/m² -
1788466946 31.11° C 66% 1008.6 hPa 0 mm - 335 W/m² -
1788466645 31.11° C 61% 1008.5 hPa 0 mm - 463 W/m² -
1788466341 31.11° C 61% 1008.6 hPa 0 mm - 573 W/m² -
1788466039 31.11° C 59% 1008.8 hPa 0 mm - 232 W/m² -
1788465735 31.67° C 60% 1008.8 hPa 0 mm - 507 W/m² -
1788465430 31.11° C 60% 1008.6 hPa 0 mm - 435 W/m² -
1788465126 31.11° C 61% 1008.8 hPa 0 mm - 485 W/m² -
1788464826 31.11° C 60% 1008.7 hPa 0 mm - 573 W/m² -
1788464522 31.11° C 59% 1008.6 hPa 0 mm - 567 W/m² -
1788464217 30.56° C 61% 1008.6 hPa 0 mm - 599 W/m² -
1788463912 30.56° C 63% 1008.9 hPa 0 mm - 597 W/m² -
1788463609 30.56° C 61% 1009.1 hPa 0 mm - 173 W/m² -
1788463309 30.56° C 62% 1008.8 hPa 0 mm - 505 W/m² -
1788463005 30.56° C 62% 1009 hPa 0 mm - 564 W/m² -
1788462704 30.56° C 63% 1008.8 hPa 0 mm - 562 W/m² -

* Rain latest hour (hover to see other rain measurements)
** Current wind speed in m/s (hover to see current wind gust speed)